{"data":{"norad_id":50830,"intl_designator":"2022-001AD","name":"STARLINK-3278","alt_names":[],"object_type":"PAYLOAD","status":"ACTIVE","operator":null,"country":"US","launch_date":"2022-01-06","launch_site_code":"AFETR","launch_vehicle":null,"mission":null,"orbit_class":"UNKNOWN","rcs_meters":null,"size_class":null,"mass_kg":null,"dimensions":null,"purposes":["comms"],"wikipedia_slug":null,"has_3d_model":false,"image_url":null,"decayed_at":null,"tle_current":{"epoch":"2026-05-25T03:46:53.679072Z","epoch_age_seconds":57326,"freshness":"FRESH","line1":"1 50830U 22001AD  26145.15756573 -.00002068  00000+0 -11192-3 0  9992","line2":"2 50830  53.2126 195.8437 0001278  87.2044 272.9095 15.08835930241819","mean_motion":15.0883593,"eccentricity":0.0001278,"inclination_deg":53.2126,"raan_deg":195.8437,"arg_perigee_deg":87.2044,"mean_anomaly_deg":272.9095,"bstar":-0.00011192,"rev_number":24181,"period_min":95.437812115198,"perigee_km":538.87172265025,"apogee_km":540.63993605743,"semimajor_km":6917.8928293538,"source":"CELESTRAK","updated_at":"2026-05-25T13:38:16.879572Z"}}}